Holdrege, NE

6:01 PM CDT on October 16, 2017 (GMT -0500)
Brewster

Weather History for KHDE - December, 2013

Change the Weather History Date:

Sunday, December 15, 2013

  Actual Average Record
Temperature  
Mean Temperature 44 °F -  
Max Temperature 57 °F 38 °F 64 °F (1977)
Min Temperature 32 °F 18 °F -17 °F (1989)
Degree Days  
Heating Degree Days 20    
Moisture  
Dew Point 24 °F    
Average Humidity 53    
Maximum Humidity 68    
Minimum Humidity 28    
Precipitation  
Precipitation 0.00 in - - ()
Sea Level Pressure  
Sea Level Pressure 30.01 in    
Wind  
Wind Speed 11 mph (West)    
Max Wind Speed 21 mph    
Max Gust Speed 26 mph    
Visibility 10 miles    
Events      
Averages and records for this station are not official NWS values.
T = Trace of Precipitation, MM = Missing Value Source: NWS Daily Summary

Daily Weather History Graph

Daily Weather History Graph

Search for Another Location

Airport or City:

Trip Planner

Search our weather history database for the weather conditions in past years. The results will help you decide how hot, cold, wet, or windy it might be!

Date:

Astronomy

Dec. 15, 2013 Rise Set
Actual Time 7:53 AM CST 5:11 PM CST
Civil Twilight 7:22 AM CST 5:42 PM CST
Nautical Twilight 6:48 AM CST 6:16 PM CST
Astronomical Twilight 6:15 AM CST 6:50 PM CST
Moon 4:17 PM CST (12/15) 6:11 AM CST (12/15)
Length of Visible Light 10h 19m
Length of Day
9h 18m
Waxing Gibbous, 98% of the Moon is Illuminated
Dec 15
Waxing Gibbous
Dec 17
Full
Dec 25
Last Quarter
Jan 1
New
Jan 7
First Quarter

Hourly Weather History & Observations

Time (CST) Temp. Windchill Dew Point Humidity Pressure Visibility Wind Dir Wind Speed Gust Speed Precip Events Conditions
12:15 AM 34.5 °F 27.3 °F 23.0 °F 63% 30.09 in 10.0 mi West 9.2 mph - N/A   Overcast
12:35 AM 35.2 °F 27.6 °F 22.8 °F 61% 30.08 in 10.0 mi West 10.4 mph - N/A   Overcast
12:55 AM 35.2 °F 26.2 °F 22.6 °F 60% 30.07 in 10.0 mi West 13.8 mph - N/A   Overcast
1:15 AM 34.5 °F 25.3 °F 22.6 °F 62% 30.07 in 10.0 mi West 13.8 mph - N/A   Overcast
1:35 AM 34.2 °F 26.2 °F 23.0 °F 64% 30.08 in 10.0 mi West 10.4 mph - N/A   Overcast
1:55 AM 33.8 °F 25.8 °F 23.0 °F 65% 30.07 in 10.0 mi West 10.4 mph - N/A   Overcast
2:15 AM 33.1 °F 24.9 °F 22.6 °F 66% 30.07 in 10.0 mi West 10.4 mph - N/A   Overcast
2:35 AM 32.9 °F 24.7 °F 22.8 °F 66% 30.07 in 10.0 mi West 10.4 mph - N/A   Overcast
2:55 AM 32.5 °F 24.8 °F 22.8 °F 67% 30.07 in 10.0 mi West 9.2 mph - N/A   Overcast
3:15 AM 32.2 °F 23.8 °F 22.5 °F 67% 30.07 in 10.0 mi West 10.4 mph - N/A   Mostly Cloudy
3:35 AM 32.0 °F 23.6 °F 22.3 °F 67% 30.07 in 10.0 mi West 10.4 mph - N/A   Scattered Clouds
3:55 AM 32.2 °F 23.2 °F 22.1 °F 66% 30.06 in 10.0 mi West 11.5 mph - N/A   Scattered Clouds
4:15 AM 32.0 °F 23.0 °F 22.1 °F 67% 30.06 in 10.0 mi West 11.5 mph - N/A   Clear
4:35 AM 32.0 °F 24.2 °F 22.1 °F 67% 30.05 in 10.0 mi West 9.2 mph - N/A   Clear
4:55 AM 32.0 °F 23.6 °F 22.1 °F 67% 30.04 in 10.0 mi West 10.4 mph - N/A   Clear
5:15 AM 32.4 °F 23.5 °F 22.3 °F 66% 30.04 in 10.0 mi West 11.5 mph - N/A   Scattered Clouds
5:35 AM 33.1 °F 23.9 °F 22.3 °F 65% 30.04 in 10.0 mi West 12.7 mph - N/A   Scattered Clouds
5:55 AM 32.0 °F 23.0 °F 22.1 °F 67% 30.04 in 10.0 mi West 11.5 mph - N/A   Clear
6:15 AM 32.0 °F 23.0 °F 22.1 °F 67% 30.04 in 10.0 mi West 11.5 mph - N/A   Clear
6:35 AM 32.0 °F 23.0 °F 22.1 °F 67% 30.04 in 10.0 mi West 11.5 mph - N/A   Clear
6:55 AM 32.0 °F 22.5 °F 22.5 °F 68% 30.04 in 10.0 mi West 12.7 mph - N/A   Scattered Clouds
7:15 AM 32.0 °F 23.6 °F 22.6 °F 68% 30.05 in 10.0 mi West 10.4 mph - N/A   Scattered Clouds
7:35 AM 32.5 °F 24.2 °F 23.0 °F 68% 30.04 in 10.0 mi West 10.4 mph - N/A   Scattered Clouds
7:55 AM 34.0 °F 25.5 °F 23.5 °F 66% 30.03 in 10.0 mi West 11.5 mph - N/A   Clear
8:15 AM 35.2 °F 27.1 °F 23.5 °F 62% 30.03 in 10.0 mi West 11.5 mph - N/A   Clear
8:35 AM 34.9 °F 26.2 °F 23.4 °F 63% 30.04 in 10.0 mi West 12.7 mph - N/A   Clear
8:55 AM 35.1 °F 27.4 °F 23.5 °F 63% 30.04 in 10.0 mi West 10.4 mph - N/A   Clear
9:15 AM 35.8 °F 27.8 °F 23.5 °F 61% 30.04 in 10.0 mi West 11.5 mph - N/A   Clear
9:35 AM 36.1 °F 27.7 °F 23.9 °F 61% 30.04 in 10.0 mi West 12.7 mph - N/A   Clear
9:55 AM 38.1 °F 30.2 °F 24.6 °F 58% 30.05 in 10.0 mi West 12.7 mph - N/A   Scattered Clouds
10:15 AM 41.0 °F 33.9 °F 25.3 °F 54% 30.05 in 10.0 mi West 12.7 mph - N/A   Mostly Cloudy
10:35 AM 41.9 °F 34.6 °F 25.0 °F 51% 30.04 in 10.0 mi West 13.8 mph - N/A   Overcast
10:55 AM 43.0 °F 36.8 °F 25.5 °F 50% 30.04 in 10.0 mi West 11.5 mph - N/A   Overcast
11:15 AM 44.6 °F 38.8 °F 26.1 °F 48% 30.04 in 10.0 mi West 11.5 mph - N/A   Overcast
11:35 AM 45.7 °F 39.1 °F 25.3 °F 45% 30.02 in 10.0 mi West 15.0 mph - N/A   Overcast
11:55 AM 47.1 °F - 25.5 °F 43% 30.01 in 10.0 mi West 13.8 mph - N/A   Overcast
12:15 PM 47.5 °F - 26.6 °F 44% 30.00 in 10.0 mi West 10.4 mph - N/A   Overcast
12:35 PM 50.9 °F - 25.3 °F 37% 29.99 in 10.0 mi West 15.0 mph - N/A   Scattered Clouds
12:55 PM 54.1 °F - 25.2 °F 33% 29.98 in 10.0 mi West 17.3 mph 23.0 mph N/A   Clear
1:15 PM 55.4 °F - 24.6 °F 30% 29.97 in 10.0 mi West 16.1 mph - N/A   Clear
1:35 PM 55.9 °F - 25.0 °F 30% 29.97 in 10.0 mi West 13.8 mph 23.0 mph N/A   Clear
1:55 PM 56.7 °F - 25.2 °F 30% 29.96 in 10.0 mi West 18.4 mph - N/A   Clear
2:15 PM 55.6 °F - 23.9 °F 29% 29.96 in 10.0 mi West 16.1 mph 24.2 mph N/A   Clear
2:35 PM 56.7 °F - 24.6 °F 29% 29.95 in 10.0 mi West 20.7 mph 26.5 mph N/A   Clear
2:55 PM 57.2 °F - 24.4 °F 28% 29.95 in 10.0 mi West 19.6 mph 25.3 mph N/A   Clear
3:15 PM 56.7 °F - 24.4 °F 29% 29.95 in 10.0 mi West 16.1 mph 23.0 mph N/A   Clear
3:35 PM 56.5 °F - 24.6 °F 29% 29.95 in 10.0 mi West 13.8 mph 20.7 mph N/A   Clear
3:55 PM 55.6 °F - 24.6 °F 30% 29.95 in 10.0 mi West 15.0 mph - N/A   Clear
4:15 PM 54.7 °F - 24.8 °F 32% 29.95 in 10.0 mi West 10.4 mph - N/A   Clear
4:35 PM 52.9 °F - 24.8 °F 34% 29.96 in 10.0 mi West 11.5 mph - N/A   Clear
4:55 PM 50.9 °F - 24.4 °F 36% 29.95 in 10.0 mi West 11.5 mph - N/A   Clear
5:15 PM 47.7 °F - 24.6 °F 41% 29.96 in 10.0 mi West 10.4 mph - N/A   Clear
5:35 PM 46.8 °F - 24.3 °F 41% 29.96 in 10.0 mi West 10.4 mph - N/A   Clear
5:55 PM 44.6 °F 40.2 °F 23.5 °F 44% 29.96 in 10.0 mi West 8.1 mph - N/A   Clear
6:15 PM 41.9 °F 36.9 °F 23.4 °F 48% 29.96 in 10.0 mi West 8.1 mph - N/A   Clear
6:35 PM 41.0 °F 35.8 °F 23.0 °F 49% 29.96 in 10.0 mi West 8.1 mph - N/A   Clear
6:55 PM 42.8 °F 37.0 °F 23.5 °F 47% 29.97 in 10.0 mi West 10.4 mph - N/A   Clear
7:15 PM 41.0 °F 34.7 °F 23.5 °F 50% 29.97 in 10.0 mi West 10.4 mph - N/A   Clear
7:35 PM 43.5 °F 37.5 °F 23.7 °F 46% 29.97 in 10.0 mi West 11.5 mph - N/A   Clear
7:55 PM 41.2 °F 35.5 °F 23.4 °F 49% 29.97 in 10.0 mi West 9.2 mph - N/A   Clear
8:15 PM 39.7 °F 33.2 °F 23.2 °F 52% 29.97 in 10.0 mi West 10.4 mph - N/A   Clear
8:35 PM 39.6 °F 34.0 °F 23.0 °F 52% 29.97 in 10.0 mi West 8.1 mph - N/A   Clear
8:55 PM 36.7 °F 30.5 °F 22.3 °F 56% 29.98 in 10.0 mi West 8.1 mph - N/A   Clear
9:15 PM 36.7 °F 31.2 °F 22.5 °F 56% 29.98 in 10.0 mi West 6.9 mph - N/A   Clear
9:35 PM 38.5 °F 33.4 °F 23.0 °F 54% 29.97 in 10.0 mi West 6.9 mph - N/A   Clear
9:55 PM 37.2 °F 31.2 °F 23.0 °F 56% 29.98 in 10.0 mi West 8.1 mph - N/A   Clear
10:15 PM 38.5 °F 32.1 °F 23.4 °F 55% 29.98 in 10.0 mi West 9.2 mph - N/A   Clear
10:35 PM 38.7 °F 32.9 °F 23.5 °F 55% 29.98 in 10.0 mi West 8.1 mph - N/A   Clear
10:55 PM 38.8 °F 33.2 °F 23.7 °F 55% 29.99 in 10.0 mi West 8.1 mph - N/A   Clear
11:15 PM 38.3 °F 31.9 °F 23.5 °F 55% 29.99 in 10.0 mi West 9.2 mph - N/A   Clear
11:35 PM 38.7 °F 32.4 °F 23.5 °F 55% 29.99 in 10.0 mi West 9.2 mph - N/A   Clear
11:55 PM 39.2 °F 32.5 °F 23.9 °F 54% 29.99 in 10.0 mi West 10.4 mph - N/A   Clear